Location: Catenanuova
(37.5690°N, 14.6870°E)
Time: 11:12:25
(UTC+02:00)

Hubble Space Telescope - Pass Details

Date: 28 May 2024
Orbit: 511 x 514 km, 28.5° (Epoch: 13 June)

Event Time Altitude Azimuth Distance (km) Brightness Sun altitude
Rises 21:07:35 0° 237° (WSW) 2,608 4.5 -9.7°
Reaches altitude 10° 21:10:15 10° 220° (SW) 1,722 3.4 -10.1°
Maximum altitude 21:13:10 20° 172° (S) 1,233 2.2 -10.6°
Enters shadow 21:14:52 15° 140° (SE) 1,419 2.3 -10.8°
